Ташкепри

Туркменистан     36°16′19″N   62°38′57″E
темп.,
°C
ветер,
м/с
пор.,
м/с
влажн.,
%
обл.,
%
осадки,
мм/ч
давл.,
гПа
погр.,
м
15 апреля, чт
чт1523:00+16св3325100 0.0 101523
02:00+14всв222764 0.0 101517
05:00+13в22330 0.0 101411
08:00+16юв12305 0.0 101694
11:00+23вюв12205 0.0 10151049
14:00+27с44185 0.0 10132191
17:00+26ссв65195 0.0 10122194
20:00+19св4728100 0.0 101475
16 апреля, пт
пт1623:00+17св4626100 0.0 101588
02:00+15всв3528100 0.0 101463
05:00+13всв2234100 0.0 101516
08:00+17в233298 0.0 1016126
11:00+23св341810 0.0 10161594
14:00+26св551564 0.0 10142273
17:00+26св661670 0.0 10132305
20:00+19св45277 0.0 101455
17 апреля, сб
сб1723:00+16св352711 0.0 101571
02:00+16св332624 0.0 101423
05:00+13св11335 0.0 101511
08:00+19юв11260 0.0 101774
11:00+24сз232030 0.0 10181413
14:00+26с751770 0.0 10163376
17:00+25ссв761818 0.0 10162964
20:00+20св4102785 0.0 1018158
18 апреля, вс
вс1823:00+17св47290 0.0 102095
02:00+15ююв22360 0.0 102013
05:00+13в22430 0.0 102011
08:00+18вюв12340 0.0 1022104
11:00+24в232362 0.0 10201720
14:00+26всв22170 0.0 10182512
17:00+27всв33160 0.0 10152286
20:00+20всв46284 0.0 101574
19 апреля, пн
пн1923:00+18в5103036 0.0 1016137
02:00+16в36265 0.0 101464
05:00+15в223066 0.0 101413
08:00+18вюв232723 0.0 1014129
11:00+25юв231999 0.0 10131118
14:00+28сз1215100 0.0 10111954
17:00+29ссз3315100 0.0 10092248
20:00+23ссв332197 0.0 101022